Location: Clairmont
(55.2667°N, 118.8000°W)
Time: 08:39:05
(UTC+00:00)

N. Korean satellite - Pass Details

Date: 28 October 2020
Orbit: 453 x 503 km, 97.2° (Epoch: 03 December)

Event Time Altitude Azimuth Distance (km) Brightness Sun altitude
Rises 12:46:14 0° 24° (NNE) 2,491 10.5 -18.5°
Reaches altitude 10° 12:48:37 10° 40° (NE) 1,606 9.8 -18.1°
Maximum altitude 12:51:21 22° 93° (E) 1,058 9.2 -17.7°
Drops below altitude 10° 12:54:03 10° 145° (SE) 1,591 9.6 -17.3°
Sets 12:56:24 0° 162° (SSE) 2,460 10.4 -17.0°
